Location: Bocianicha
(51.5066°N, 19.2563°E)
Time: 13:14:18
(UTC+00:00)

Okean 2 Rocket - Pass Details

Date: 15 June 2025
Orbit: 611 x 635 km, 82.5° (Epoch: 18 July)

Event Time Altitude Azimuth Distance (km) Brightness Sun altitude
Rises 00:17:45 0° 346° (NNW) 2,944 7.5 -12.4°
Reaches altitude 10° 00:20:02 10° 343° (NNW) 2,028 6.5 -12.2°
Maximum altitude 00:24:27 58° 265° (W) 736 3.3 -12.0°
Enters shadow 00:27:52 16° 189° (S) 1,637 4.6 -11.7°
